Portada
METAR-TAF:

METAR-TAF

Aeroports :

Farmington Regional Airport

Farmington, Missouri, Estats Units d'Amèrica

latitud: 37-46N, longitud: 090-26W, altitud: 288 m

Observació

L'informe es va fer fa 35 minuts, a les 17:56 UTC
Vent 6 kt del Est/Sud-Est
Temperatura 14°C
Humitat 100%
Pressió 1022 hPa
Visibilitat: 8.0 km
Cel cobert a una alçada de 400 ft
boirina

METAR: KFAM 211756Z AUTO 11006KT 5SM BR OVC004 14/14 A3018 RMK AO2 SLP227 60002 T01390139 10144 20122 58005

Hora: 13:31 (18:31 UTC)


TAF: manca

Observacions i pronòstics meteorològics de més de 4000 aeroports (METAR i TAF).

Les estacions disponibles són els punts grocs i vermells al mapa.

Posi el ratolí al punt desitjat per veure el nom de l'estació.

Feu clic per veure les observacions i els pronòstics meteorològics.

Per canviar el mapa: feu clic els botons verds amb una creu de color negre per apropar; al botó verd amb un guió per allunyar la imatge; o en les fletxes verdes per a mapes adjacents.


METAR-TAF: